Bullhead City, AZ

2:45 AM MST on August 28, 2016 (GMT -0700)
Laughlin-Bullhead International

Weather History for KIFP - September, 2013

Change the Weather History Date:

Monday, September 9, 2013

  Actual Average Record
Temperature  
Mean Temperature 81 °F -  
Max Temperature 91 °F 100 °F 114 °F (1990)
Min Temperature 71 °F 77 °F 46 °F (2007)
Cooling Degree Days 16    
Growing Degree Days 31 (Base 50)    
Moisture  
Dew Point 65 °F    
Average Humidity 62    
Maximum Humidity 88    
Minimum Humidity 38    
Precipitation  
Precipitation 0.27 in - - ()
Sea Level Pressure  
Sea Level Pressure 29.76 in    
Wind  
Wind Speed 8 mph (NE)    
Max Wind Speed 30 mph    
Max Gust Speed 43 mph    
Visibility 10 miles    
Events Thunderstorm    
Averages and records for this station are not official NWS values.
T = Trace of Precipitation, MM = Missing Value Source: NWS Daily Summary

Daily Weather History Graph

Daily Weather History Graph

Search for Another Location

Airport or City:

Trip Planner

Search our weather history database for the weather conditions in past years. The results will help you decide how hot, cold, wet, or windy it might be!

Date:

Astronomy

Sep. 09, 2013 Rise Set
Actual Time 6:16 AM MST 6:53 PM MST
Civil Twilight 5:51 AM MST 7:18 PM MST
Nautical Twilight 5:21 AM MST 7:48 PM MST
Astronomical Twilight 4:50 AM MST 8:19 PM MST
Moon 10:31 AM MST (9/9) 9:25 PM MST (9/9)
Length of Visible Light 13h 27m
Length of Day
12h 36m
Waxing Crescent, 20% of the Moon is Illuminated
Sep 9
Waxing Crescent
Sep 12
First Quarter
Sep 19
Full
Sep 26
Last Quarter
Oct 4
New

Hourly Weather History & Observations

Time (MST) Temp. Heat Index Dew Point Humidity Pressure Visibility Wind Dir Wind Speed Gust Speed Precip Events Conditions
12:15 AM 84.2 °F 85.0 °F 62.6 °F 48% 29.77 in 10.0 mi NE 5.8 mph - N/A   Clear
12:35 AM 84.2 °F 85.0 °F 62.6 °F 48% 29.77 in 10.0 mi Calm Calm - N/A   Clear
12:55 AM 84.2 °F 85.0 °F 62.6 °F 48% 29.77 in 10.0 mi NE 5.8 mph - N/A   Clear
1:15 AM 84.2 °F 85.0 °F 62.6 °F 48% 29.76 in 10.0 mi NE 6.9 mph - N/A   Clear
1:35 AM 82.4 °F 83.4 °F 62.6 °F 51% 29.76 in 10.0 mi ENE 6.9 mph - N/A   Clear
1:55 AM 82.4 °F 83.4 °F 62.6 °F 51% 29.76 in 10.0 mi ENE 5.8 mph - N/A   Partly Cloudy
2:15 AM 80.6 °F 82.3 °F 64.4 °F 58% 29.76 in 10.0 mi ENE 4.6 mph - N/A   Partly Cloudy
2:35 AM 82.4 °F 83.9 °F 64.4 °F 54% 29.76 in 10.0 mi NE 6.9 mph - N/A   Partly Cloudy
2:55 AM 82.4 °F 83.9 °F 64.4 °F 54% 29.76 in 10.0 mi NE 5.8 mph - N/A   Partly Cloudy
3:15 AM 82.4 °F 83.9 °F 64.4 °F 54% 29.75 in 10.0 mi NE 6.9 mph - N/A   Partly Cloudy
3:35 AM 82.4 °F 83.9 °F 64.4 °F 54% 29.75 in 10.0 mi NE 8.1 mph - N/A   Mostly Cloudy
3:55 AM 82.4 °F 83.9 °F 64.4 °F 54% 29.75 in 10.0 mi NE 8.1 mph - N/A   Scattered Clouds
4:15 AM 82.4 °F 83.9 °F 64.4 °F 54% 29.75 in 10.0 mi ENE 9.2 mph - N/A   Clear
4:35 AM 82.4 °F 83.9 °F 64.4 °F 54% 29.75 in 10.0 mi NE 10.4 mph - N/A   Clear
4:55 AM 82.4 °F 83.9 °F 64.4 °F 54% 29.75 in 10.0 mi NE 10.4 mph - N/A   Clear
5:15 AM 82.4 °F 83.9 °F 64.4 °F 54% 29.75 in 10.0 mi NE 8.1 mph - N/A   Clear
5:35 AM 82.4 °F 83.9 °F 64.4 °F 54% 29.75 in 10.0 mi NE 8.1 mph - N/A   Clear
5:55 AM 80.6 °F 82.7 °F 66.2 °F 61% 29.76 in 10.0 mi NNE 8.1 mph - N/A   Clear
6:15 AM 80.6 °F 82.7 °F 66.2 °F 61% 29.76 in 10.0 mi NNE 8.1 mph - N/A   Clear
6:35 AM 80.6 °F 82.7 °F 66.2 °F 61% 29.77 in 10.0 mi NNE 11.5 mph - N/A   Clear
6:55 AM 82.4 °F 84.6 °F 66.2 °F 58% 29.77 in 10.0 mi NNE 11.5 mph - N/A   Clear
7:15 AM 82.4 °F 84.6 °F 66.2 °F 58% 29.77 in 10.0 mi NNE 9.2 mph - N/A   Clear
7:35 AM 82.4 °F 84.6 °F 66.2 °F 58% 29.77 in 10.0 mi NNE 8.1 mph - N/A   Clear
7:55 AM 82.4 °F 84.6 °F 66.2 °F 58% 29.77 in 10.0 mi North 11.5 mph - N/A   Clear
8:15 AM 84.2 °F 86.6 °F 66.2 °F 55% 29.77 in 10.0 mi North 11.5 mph - N/A   Clear
8:35 AM 84.2 °F 86.6 °F 66.2 °F 55% 29.77 in 10.0 mi North 12.7 mph - N/A   Clear
8:55 AM 84.2 °F 85.6 °F 64.4 °F 51% 29.76 in 10.0 mi North 9.2 mph - N/A   Clear
9:15 AM 86.0 °F 87.3 °F 64.4 °F 48% 29.76 in 10.0 mi NNW 8.1 mph - N/A   Clear
9:35 AM 86.0 °F 87.3 °F 64.4 °F 48% 29.76 in 10.0 mi North 5.8 mph - N/A   Clear
9:55 AM 86.0 °F 87.3 °F 64.4 °F 48% 29.76 in 10.0 mi Calm Calm - N/A   Clear
10:15 AM 86.0 °F 87.3 °F 64.4 °F 48% 29.77 in 10.0 mi North 10.4 mph - N/A   Partly Cloudy
10:35 AM 86.0 °F 87.3 °F 64.4 °F 48% 29.77 in 10.0 mi NNW 9.2 mph - N/A   Clear
10:55 AM 89.6 °F 90.1 °F 62.6 °F 40% 29.76 in 10.0 mi NW 6.9 mph - N/A   Clear
11:15 AM 89.6 °F 90.1 °F 62.6 °F 40% 29.75 in 10.0 mi SW 6.9 mph - N/A   Clear
11:35 AM 89.6 °F 90.1 °F 62.6 °F 40% 29.74 in 10.0 mi Calm Calm - N/A   Clear
11:55 AM 91.4 °F 92.1 °F 62.6 °F 38% 29.73 in 10.0 mi NNW 5.8 mph - N/A Thunderstorm Clear
12:15 PM 91.4 °F 92.1 °F 62.6 °F 38% 29.72 in 10.0 mi North 6.9 mph - N/A   Partly Cloudy
12:35 PM 89.6 °F 92.2 °F 66.2 °F 46% 29.71 in 10.0 mi ENE 26.5 mph 29.9 mph N/A   Mostly Cloudy
12:55 PM 77.0 °F - 66.2 °F 69% 29.72 in 4.0 mi East 18.4 mph - 0.14 in Thunderstorm Haze
1:15 PM 78.8 °F - 66.2 °F 65% 29.71 in 10.0 mi East 9.2 mph - 0.01 in Thunderstorm Mostly Cloudy
1:35 PM 80.6 °F 83.2 °F 68.0 °F 65% 29.71 in 10.0 mi ESE 16.1 mph - 0.01 in Thunderstorm Clear
1:55 PM 80.6 °F 83.2 °F 68.0 °F 65% 29.71 in 10.0 mi ESE 13.8 mph - 0.01 in   Clear
2:15 PM 80.6 °F 82.7 °F 66.2 °F 61% 29.72 in 10.0 mi SSE 6.9 mph - N/A   Clear
2:35 PM 82.4 °F 84.6 °F 66.2 °F 58% 29.71 in 10.0 mi South 5.8 mph - N/A   Clear
2:55 PM 82.4 °F 84.6 °F 66.2 °F 58% 29.70 in 10.0 mi SSW 10.4 mph - N/A   Clear
3:15 PM 82.4 °F 84.6 °F 66.2 °F 58% 29.73 in 10.0 mi ENE 24.2 mph 32.2 mph N/A Thunderstorm Mostly Cloudy
3:35 PM 75.2 °F - 64.4 °F 69% 29.72 in 9.0 mi East 29.9 mph 42.6 mph N/A Thunderstorm Thunderstorm
3:55 PM 71.6 °F - 64.4 °F 78% 29.70 in 5.0 mi East 25.3 mph 33.4 mph 0.01 in   Haze
4:15 PM 75.2 °F - 64.4 °F 69% 29.71 in 10.0 mi East 13.8 mph - N/A Thunderstorm Mostly Cloudy
4:35 PM 75.2 °F - 66.2 °F 73% 29.72 in 10.0 mi Calm Calm - N/A   Scattered Clouds
4:55 PM 77.0 °F - 64.4 °F 65% 29.71 in 10.0 mi Calm Calm - N/A   Partly Cloudy
5:15 PM 77.0 °F - 64.4 °F 65% 29.72 in 10.0 mi SSW 10.4 mph - N/A   Clear
5:35 PM 78.8 °F - 62.6 °F 57% 29.71 in 10.0 mi SSW 11.5 mph 16.1 mph N/A   Clear
5:55 PM 77.0 °F - 64.4 °F 65% 29.73 in 10.0 mi South 9.2 mph - N/A   Clear
6:15 PM 75.2 °F - 66.2 °F 73% 29.74 in 10.0 mi South 4.6 mph - N/A   Clear
6:35 PM 75.2 °F - 66.2 °F 73% 29.74 in 10.0 mi SSE 6.9 mph - N/A   Partly Cloudy
6:55 PM 75.2 °F - 66.2 °F 73% 29.75 in 10.0 mi SW 5.8 mph - N/A   Scattered Clouds
7:15 PM 75.2 °F - 66.2 °F 73% 29.74 in 10.0 mi SSW 5.8 mph - N/A   Mostly Cloudy
7:35 PM 75.2 °F - 66.2 °F 73% 29.74 in 10.0 mi South 4.6 mph - N/A   Partly Cloudy
7:55 PM 75.2 °F - 66.2 °F 73% 29.75 in 10.0 mi South 5.8 mph - N/A   Clear
8:15 PM 75.2 °F - 68.0 °F 78% 29.78 in 10.0 mi Calm Calm - N/A   Scattered Clouds
8:35 PM 75.2 °F - 68.0 °F 78% 29.79 in 10.0 mi ENE 13.8 mph - N/A   Overcast
8:55 PM 73.4 °F - 68.0 °F 83% 29.82 in 5.0 mi NNE 11.5 mph 16.1 mph 0.05 in   Haze
9:15 PM 73.4 °F - 66.2 °F 78% 29.82 in 5.0 mi NNE 9.2 mph 19.6 mph 0.01 in   Haze
9:35 PM 71.6 °F - 66.2 °F 83% 29.81 in 10.0 mi North 5.8 mph - 0.02 in   Mostly Cloudy
9:55 PM 71.6 °F - 66.2 °F 83% 29.82 in 9.0 mi North 3.5 mph - 0.04 in   Overcast
10:15 PM 71.6 °F - 66.2 °F 83% 29.82 in 10.0 mi Calm Calm - N/A   Mostly Cloudy
10:35 PM 71.6 °F - 68.0 °F 88% 29.82 in 10.0 mi Calm Calm - 0.01 in   Overcast
10:55 PM 71.6 °F - 68.0 °F 88% 29.82 in 10.0 mi Calm Calm - 0.02 in   Scattered Clouds
11:15 PM 71.6 °F - 68.0 °F 88% 29.81 in 10.0 mi East 6.9 mph - N/A   Scattered Clouds
11:35 PM 71.6 °F - 68.0 °F 88% 29.81 in 10.0 mi East 6.9 mph - N/A   Clear
11:55 PM 71.6 °F - 68.0 °F 88% 29.80 in 10.0 mi ESE 5.8 mph - N/A   Scattered Clouds